Date String (YYYY-MM-DD hh:mm:ss) UTC,Instrument flags,Ambient pressure (hPa),Sample flow (lpm),Bypass flow (lpm),Sample temperature (°C),Ambient temperature (°C),ASC tube jacket temperature (°C),LED temperature (°C),Box temperature (°C),Sample RH (%),Span deviation,Mass concentration (μg/m³),Mass concentration (μg/m³),Mass concentration (μg/m³)
DateTimeUTC,F1_M11,P_M11,Q1_M11,Q2_M11,T1_M11,T2_M11,T3_M11,T4_M11,T5_M11,U1_M11,ZSPAN_M11,X0_M11,X2_M11,X1_M11
2022-02-27 11:00:00,,0831.7,4.98,0.00,22.3,22.9,00.0,31.2,24.2,06.1,0003.8,0010.26,0006.52,0005.99
2022-02-27 11:01:00,,0831.7,5.00,0.00,22.3,22.6,00.0,31.2,24.2,06.1,0003.8,0010.56,0006.58,0006.02
2022-02-27 11:02:00,,0831.7,4.99,0.00,22.3,22.4,00.0,31.2,24.1,06.1,0003.7,0010.49,0006.57,0006.03
2022-02-27 11:03:00,,0831.7,5.01,0.00,22.3,22.2,00.0,31.2,24.1,06.1,0002.3,0010.12,0006.57,0006.03
2022-02-27 11:04:00,,0831.7,4.98,0.00,22.3,22.0,00.0,31.2,24.0,06.1,0000.0,0010.14,0006.58,0006.02
2022-02-27 11:05:00,,0831.8,5.00,0.00,22.2,21.9,00.0,31.2,23.9,06.1,0002.3,0010.12,0006.57,0006.01
2022-02-27 11:06:00,,0831.9,5.00,0.00,22.2,21.8,00.0,31.2,23.9,06.1,0004.6,0010.02,0006.53,0006.00
2022-02-27 11:07:00,,0831.9,5.00,0.00,22.2,21.7,00.0,31.2,23.8,06.1,0004.2,0010.25,0006.51,0005.97
2022-02-27 11:08:00,,0831.9,5.00,0.00,22.1,21.5,00.0,31.2,23.8,06.1,0004.7,0010.69,0006.52,0005.97
2022-02-27 11:09:00,,0832.0,5.00,0.00,22.1,21.5,00.0,31.2,23.7,06.1,0004.8,0010.83,0006.56,0006.00
2022-02-27 11:10:00,,0832.0,5.00,0.00,22.1,21.4,00.0,31.2,23.7,06.1,0004.4,0011.03,0006.58,0006.03
2022-02-27 11:11:00,,0831.9,5.00,0.00,22.0,21.3,00.0,31.1,23.7,06.2,0003.3,0011.19,0006.58,0006.05
2022-02-27 11:12:00,,0831.9,4.99,0.00,22.0,21.3,00.0,31.1,23.6,06.2,0004.1,0011.04,0006.60,0006.04
2022-02-27 11:13:00,,0831.9,5.01,0.00,22.1,21.9,00.0,31.1,23.8,06.1,0004.4,0010.80,0006.49,0005.96
2022-02-27 11:14:00,,0831.9,5.00,0.00,22.2,22.7,00.0,31.2,24.0,06.0,0003.8,0010.70,0006.36,0005.81
2022-02-27 11:15:00,,0831.9,4.99,0.00,22.3,23.1,00.0,31.2,24.2,05.9,0004.1,0010.62,0006.26,0005.70
2022-02-27 11:16:00,,0831.8,4.99,0.00,22.3,22.8,00.0,31.2,24.2,05.9,0004.1,0010.47,0006.14,0005.59
2022-02-27 11:17:00,,0831.8,5.00,0.00,22.3,22.5,00.0,31.2,24.1,05.9,0003.8,0010.31,0006.00,0005.47
2022-02-27 11:18:00,,0831.8,5.01,0.00,22.3,22.3,00.0,31.2,24.0,06.0,0003.4,0010.01,0005.95,0005.42
2022-02-27 11:19:00,,0831.8,4.98,0.00,22.2,22.0,00.0,31.2,23.9,06.0,0003.3,0009.53,0005.90,0005.40
2022-02-27 11:20:00,,0831.8,5.00,0.00,22.2,21.8,00.0,31.2,23.8,06.0,0003.6,0009.19,0005.72,0005.27
2022-02-27 11:21:00,,0831.7,5.00,0.00,22.1,21.6,00.0,31.2,23.7,06.1,0003.0,0008.97,0005.72,0005.24
2022-02-27 11:22:00,,0831.7,5.01,0.00,22.0,21.4,00.0,31.2,23.6,06.1,0002.2,0008.78,0005.69,0005.21
2022-02-27 11:23:00,,0831.7,5.00,0.00,21.9,21.2,00.0,31.1,23.4,06.3,0001.4,0009.00,0005.67,0005.23
2022-02-27 11:24:00,,0831.8,5.00,0.00,21.9,21.0,00.0,31.1,23.3,06.4,0001.2,0009.22,0005.87,0005.42
2022-02-27 11:25:00,,0831.8,5.00,0.00,21.8,21.1,00.0,31.1,23.3,06.4,0001.7,0009.38,0006.04,0005.60
2022-02-27 11:26:00,,0831.8,5.01,0.00,21.9,21.8,00.0,31.1,23.5,06.4,0001.5,0009.65,0006.23,0005.77
2022-02-27 11:27:00,,0831.9,5.01,0.00,22.0,22.6,00.0,31.1,23.8,06.4,0000.8,0010.08,0006.51,0005.99
2022-02-27 11:28:00,,0831.9,4.99,0.00,22.2,23.1,00.0,31.1,24.1,06.4,0000.8,0010.47,0006.82,0006.23
2022-02-27 11:29:00,,0831.9,5.01,0.00,22.2,22.9,00.0,31.2,24.1,06.4,0002.0,0010.60,0007.00,0006.42
2022-02-27 11:30:00,,0832.0,5.00,0.00,22.2,22.6,00.0,31.2,24.0,06.4,0002.4,0010.82,0007.19,0006.61
2022-02-27 11:31:00,,0831.9,4.98,0.00,22.2,22.2,00.0,31.1,23.9,06.4,0002.7,0011.29,0007.55,0006.92
2022-02-27 11:32:00,,0831.9,5.01,0.00,22.1,22.0,00.0,31.1,23.8,06.4,0003.3,0011.60,0007.78,0007.13
2022-02-27 11:33:00,,0831.9,5.00,0.00,22.1,21.7,00.0,31.1,23.7,06.4,0003.5,0011.99,0007.94,0007.28
2022-02-27 11:34:00,,0831.9,5.00,0.00,22.0,21.5,00.0,31.1,23.5,06.4,0003.4,0011.98,0008.04,0007.37
2022-02-27 11:35:00,,0831.9,5.00,0.00,21.9,21.2,00.0,31.1,23.4,06.5,0003.8,0012.11,0008.08,0007.39
2022-02-27 11:36:00,,0831.9,5.01,0.00,21.8,20.9,00.0,31.0,23.2,06.5,0003.5,0012.71,0008.23,0007.50
2022-02-27 11:37:00,,0831.9,5.00,0.00,21.7,20.8,00.0,31.0,23.2,06.4,0003.5,0012.93,0008.26,0007.54
2022-02-27 11:38:00,,0832.0,5.00,0.00,21.6,20.8,00.0,31.0,23.1,06.4,0003.9,0012.99,0008.23,0007.53
2022-02-27 11:39:00,,0832.0,4.99,0.00,21.7,21.4,00.0,31.0,23.3,06.4,0003.4,0012.93,0008.14,0007.46
2022-02-27 11:40:00,,0832.0,5.02,0.00,21.8,22.3,00.0,31.0,23.6,06.3,0002.6,0012.97,0008.07,0007.36
2022-02-27 11:41:00,,0832.0,4.99,0.00,22.0,22.8,00.0,31.0,23.9,06.3,0002.3,0012.86,0007.97,0007.26
2022-02-27 11:42:00,,0832.0,5.00,0.00,22.1,22.6,00.0,31.0,23.9,06.2,0002.1,0012.69,0007.79,0007.12
2022-02-27 11:43:00,,0832.1,5.00,0.00,22.0,22.3,00.0,31.0,23.8,06.3,0001.8,0012.85,0007.64,0007.00
2022-02-27 11:44:00,,0832.1,5.00,0.00,22.0,22.0,00.0,31.0,23.7,06.3,0002.5,0012.57,0007.56,0006.93
2022-02-27 11:45:00,,0832.0,4.99,0.00,21.9,21.7,00.0,31.0,23.6,06.3,0002.7,0012.29,0007.46,0006.87
2022-02-27 11:46:00,,0832.0,5.00,0.00,21.9,21.5,00.0,31.0,23.4,06.3,0002.3,0012.16,0007.37,0006.79
2022-02-27 11:47:00,,0832.0,5.00,0.00,21.8,21.3,00.0,31.0,23.3,06.3,0001.9,0011.63,0007.25,0006.72
2022-02-27 11:48:00,,0832.0,5.01,0.00,21.8,21.1,00.0,30.9,23.3,06.3,0002.2,0011.26,0007.17,0006.67
2022-02-27 11:49:00,,0832.0,5.00,0.00,21.7,21.0,00.0,30.9,23.2,06.3,0001.9,0011.09,0007.13,0006.65
2022-02-27 11:50:00,,0832.0,5.00,0.00,21.6,20.9,00.0,30.9,23.1,06.3,0002.9,0011.02,0007.11,0006.65
2022-02-27 11:51:00,,0832.0,4.99,0.00,21.6,20.9,00.0,30.8,23.1,06.3,0003.3,0010.98,0007.11,0006.65
2022-02-27 11:52:00,,0832.1,4.99,0.00,21.7,21.5,00.0,30.9,23.3,06.3,0003.3,0010.96,0007.10,0006.64
2022-02-27 11:53:00,,0832.0,5.02,0.00,21.8,22.4,00.0,30.9,23.6,06.3,0003.8,0010.92,0007.09,0006.62
2022-02-27 11:54:00,,0832.0,4.99,0.00,22.0,22.7,00.0,30.9,23.8,06.4,0004.1,0010.77,0007.15,0006.64
2022-02-27 11:55:00,,0831.9,5.00,0.00,22.0,22.3,00.0,30.9,23.8,06.5,0003.7,0011.20,0007.32,0006.77
2022-02-27 11:56:00,,0832.0,4.99,0.00,21.9,22.0,00.0,30.9,23.6,06.4,0003.6,0011.97,0007.41,0006.83
2022-02-27 11:57:00,,0831.9,5.01,0.00,21.8,21.7,00.0,30.9,23.4,06.4,0004.2,0012.15,0007.47,0006.86
2022-02-27 11:58:00,,0832.0,5.01,0.00,21.8,21.4,00.0,30.9,23.3,06.4,0004.7,0012.21,0007.50,0006.90
2022-02-27 11:59:00,,0832.0,4.99,0.00,21.7,21.2,00.0,30.8,23.2,06.5,0004.4,0012.15,0007.53,0006.94
